STARLINK-32467, 61713

Orbit data source: Space-Track

STARLINK-32467, 61713 is a payload satellite owned by SpaceX/Seattle (US) in LEO that was launched on Wed, 30 Oct 2024 UTC via an FALCON 9 launch vehicle from the Air Force Eastern Test Range (AFETR). Payload-class satellites include a variety of spacecraft equipped with specific instruments for various scientific and technological missions. These include communications satellites like Starlink; space stations such as the ISS; scientific satellites like the Hubble; Earth observation satellites from companies like Planet Labs, Umbra, and HawkEye 360; GPS; miniature CubeSats for education and research; and military/defense satellites.

Loading next visibility...
Identifier
61713, 2024-196G
Orbit
LEO
Last TLE update
22 hours ago
Origin
Manufacturer
SpaceX/Seattle
Mission
Operational Commercial Communications
Bus & Motor
STARLINK V2M, Unknown motor
Mass
730 kg wet, ~700 kg dry
Launch date (UTC)
2024-10-30 (8 months ago)
Launch vehicle
FALCON 9
Launch site
Air Force Eastern Test Range (AFETR)
Object type
Payload
Rocket body
Debris
Shape & HBR
Box + 2 Pan, 29 m
Radar Cross Section
36.964 m², Large (>1 m²)

Expand to show TLE details & history

TLE from 22 hours ago
0 STARLINK-32467
1 61713U 24196G   25181.52103168 -.00000123  00000-0  79672-5 0  9996
2 61713  53.1596 192.9801 0000758  66.6217 293.4863 15.30193142 38327
Epoch: 2025-06-30T12:30Z
TLE epoch observation values (Epoch: 2025-06-30T12:30:17.137Z)
Latitude
-0.00004°
Longitude
86.57902°
Altitude
475.928 km
Speed
7.629 km/s
True Right ascension
12h 51m 55s
True Declination
0° 00' 00"
Sunlit
Object was in daylight at epoch
Visualization orbit readout
Latitude
-53.27337°
Longitude
-10.61177°
Altitude
494.255 km
Speed
7.617 km/s
Apparent Right ascension
08h 11m 26s
Apparent Declination
-49° 23' 28"
Sunlit
Object is in daylight
Visualization observer readout
Local Sidereal Time
21:41:23
Azimuth
128.263° SE
Elevation
-71.511°
Doppler factor
1
Orbital elements
Apogee altitude
476.012 km
Perigee altitude
474.973 km
Semi-major axis
6,853.629 km
Eccentricity
0.00008
Inclination
53.1596°
RAAN
192.9801°
Arg. of periapsis
66.6217°
True anomaly
Unknown
Mean anomaly
293.4863°
Eccentric anomaly
Unknown
Mean motion
3.82527 °/min
Orbital period
94.11 mins
BSTAR
0.0000079672
Loading maneuver chart data...
Loading SW <> Apogee altitude chart data...
Loading historical data...
Loading historical data...
Loading historical data...
Loading historical data...
Loading historical data...
Loading historical data...
Loading historical data...

STARLINK-32467 Visibility forecast

Observer location: undefined°, undefined°

Span
Click to sort rows by Start time (UTC) header in descending order
Start Az.
Max El. time (UTC)
Max El. Az.
Max El.
End time (UTC)
End Az.
5 mins2025-07-01 10:59:00.856Z288.227° WNW2025-07-01 11:02:00.856Z209.804° SW29.486°2025-07-01 11:04:00.856Z167.031° S
4 mins2025-07-02 02:18:00.856Z165.492° S2025-07-02 02:19:00.856Z142.067° SSE22.517°2025-07-02 02:22:00.856Z78.472° E
5 mins2025-07-02 03:55:00.856Z266.588° W2025-07-02 03:57:00.856Z318.74° NNW31.973°2025-07-02 04:00:00.856Z33.254° NE
5 mins2025-07-02 08:52:00.856Z340.239° N2025-07-02 08:54:00.856Z25.695° NE24.436°2025-07-02 08:57:00.856Z86.357° E
|